Location: Gro�wechsungen
(51.4926°N, 10.6901°E)
Time: 07:06:58
(UTC+00:00)

SPOT 3 Rocket - Pass Details

Date: 31 January 2021
Orbit: 780 x 794 km, 98.7° (Epoch: 24 February)

Event Time Altitude Azimuth Distance (km) Brightness Sun altitude
Exits shadow 17:51:56 14° 34° (NE) 2,083 5.4 -16.6°
Drops below altitude 10° 17:53:32 10° 17° (NNE) 2,352 5.8 -16.9°
Sets 17:56:49 0° 355° (N) 3,288 6.8 -17.4°
